Location: Glenmont
(42.6048°N, 73.7696°W)
Time: 17:55:00
(UTC+00:00)

Daily predictions for brighter satellites

Satellite Brightness Start Highest point End
(mag) Time Altitude Azimuth Time Altitude Azimuth Time Altitude Azimuth
CZ-4C R/B 3.9 21:47:37 10° SE 21:49:28 12° ESE 21:51:24 10° E
H-2A R/B 3.4 21:46:31 10° SE 21:49:47 30° ENE 21:53:03 10° N
STARLINK-52 4.3 21:46:32 10° W 21:49:48 35° NNW 21:53:03 10° NE
Abrixas rocket 2.8 21:48:49 10° SW 21:51:40 39° SE 21:54:31 10° ENE
Genesis I 3.1 21:48:54 10° NNW 21:52:48 86° NE 21:56:37 10° SE
Cosmos 1666 2.6 21:54:56 10° N 21:58:38 61° E 22:02:19 10° SSE
SJ-7 4.5 21:55:26 10° SSE 21:59:35 89° WSW 22:03:43 10° NNW
YAOGAN 6 4.3 21:58:04 10° E 21:59:54 14° ENE 22:01:44 10° NE
Okean 1-7 3.4 21:56:23 10° SSE 22:00:29 44° E 22:04:40 10° NNE
Aureole 1 Rocket 2.5 21:57:52 10° SSW 22:00:50 69° WNW 22:04:13 10° NNE
SMAP 3.2 21:56:36 10° SSE 22:01:06 52° ENE 22:05:38 10° N
Okean O Rocket 2.5 21:56:58 10° S 22:01:13 55° W 22:05:29 10° NNW
CZ-4 R/B 3.1 22:00:03 10° E 22:01:33 12° ENE 22:03:03 10° NE
Cosmos 1908 Rocket 3.5 22:04:58 10° N 22:09:23 83° E 22:13:43 10° S
Radarsat Rocket 4.5 22:03:31 10° S 22:09:30 65° WSW 22:15:18 10° NNW
COBE Rocket 3.8 22:05:20 10° NNE 22:09:59 62° E 22:14:42 10° S
Cosmos 2242 Rocket 4.0 22:05:34 10° SSW 22:10:06 70° W 22:14:42 10° N
STARLINK-48 4.2 22:06:51 10° SSW 22:10:29 40° SE 22:13:43 13° ENE
CZ-4B R/B 4.2 22:09:07 10° NNW 22:11:28 17° WNW 22:13:47 10° WSW
Cosmos 1975 3.9 22:09:14 10° NNE 22:12:31 24° ENE 22:15:49 10° SE
ALOS 4.4 22:10:11 10° SSW 22:14:18 31° W 22:18:27 10° NNW
Cosmos 2297 3.7 22:10:24 10° NNW 22:16:07 82° ENE 22:21:47 10° SSE
Cosmos 1867 3.6 22:11:57 10° NNW 22:17:21 56° NE 22:22:41 10° SE
COSMO-SKYMED 1 3.6 22:15:36 10° NE 22:19:13 25° E 22:22:49 10° SSE
Cosmos 614 Rocket 3.9 22:14:35 10° SSW 22:19:41 87° ESE 22:24:46 10° NNE
YAOGAN 1 4.0 22:17:31 10° ESE 22:20:22 18° ENE 22:23:14 10° NNE
Cosmos 2195 Rocket 4.5 22:14:56 10° S 22:21:09 78° E 22:27:28 10° N
Cosmos 1627 Rocket 4.4 22:16:52 10° S 22:22:56 73° E 22:29:05 10° NNE
Cosmos 1190 Rocket 3.9 22:18:28 10° SSW 22:23:38 78° ESE 22:28:51 10° NNE
IRS-1C Rocket 4.2 22:19:29 10° SSE 22:24:46 85° WSW 22:30:04 10° NNW
Okean 3 4.5 22:22:10 10° SE 22:25:35 25° E 22:28:20 13° NE
Cosmos 676 Rocket 4.2 22:21:47 10° S 22:26:44 48° ESE 22:31:43 10° NNE
Cosmos 921 Rocket 3.0 22:22:27 10° NNW 22:26:48 86° WSW 22:31:11 10° SSE
Okean-O 2.7 22:24:40 10° SSE 22:28:59 54° ENE 22:33:18 10° N
Cosmos 1954 Rocket 4.2 22:26:57 10° S 22:31:56 51° ESE 22:36:51 11° NNE
Aureole 3 Rocket 3.8 22:32:52 18° E 22:32:52 18° E 22:34:36 10° SE
Cosmos 1092 Rocket 4.4 22:29:09 10° SSW 22:35:25 69° W 22:41:39 10° N
STARLINK-67 4.1 22:34:18 10° NNW 22:36:29 21° NNE 22:36:34 21° NNE
STARLINK-43 3.9 22:33:21 10° WSW 22:36:58 51° NNW 22:39:20 20° NE
USA 215 3.5 22:32:10 12° NE 22:38:11 64° NW 22:44:37 10° WSW
Cosmos 1743 2.6 22:36:08 10° N 22:40:02 80° E 22:43:55 10° S
Meteor 2-9 Rocket 4.4 22:35:49 10° N 22:41:29 49° ENE 22:47:01 10° SSE
Cosmos 1655 Rocket 4.2 22:37:56 10° SSE 22:43:55 48° E 22:49:53 10° NNE
Cosmos 1943 3.9 22:40:45 10° SSE 22:45:44 33° ESE 22:48:25 22° ENE
STARLINK-61 4.3 22:43:52 10° SSW 22:47:34 37° SE 22:49:00 27° E
Cosmos 1140 Rocket 3.5 22:43:47 10° SSW 22:48:54 79° WNW 22:54:05 10° NNE
STARLINK-26 4.2 22:47:10 10° SSW 22:50:18 31° SE 22:51:02 28° ESE
Cosmos 1461 3.9 22:50:04 10° S 22:53:19 25° ESE 22:53:25 25° ESE
Cosmos 2151 Rocket 3.9 22:52:37 10° N 22:56:48 41° ENE 23:00:58 10° SSE
Envisat 3.0 22:51:58 10° SSE 22:57:03 86° WSW 23:02:10 10° NNW
Cosmos 2369 Rocket 2.2 22:53:35 10° NNW 22:59:08 54° ENE 23:04:40 10° SE
Lacrosse 5 rocket 3.7 23:00:19 10° NNW 23:01:20 11° N 23:02:10 10° N
STARLINK-80 3.8 22:58:37 10° WSW 23:02:21 55° NNW 23:03:41 35° NNE
STARLINK-74 4.5 23:01:08 10° SSW 23:04:41 30° SE 23:04:58 30° SE
SL-16 R/B 3.5 23:00:42 10° SW 23:05:59 38° WNW 23:11:18 10° N
SL-4 R/B 2.8 23:02:30 10° NW 23:06:02 33° NNE 23:06:12 32° NNE
STARLINK-39 4.4 23:02:46 10° SSW 23:06:21 32° SE 23:06:36 31° SE
SKYMED 2 3.4 23:03:50 15° NNE 23:07:30 85° ESE 23:11:50 10° SSW
STARLINK 4.4 23:04:23 10° SSW 23:07:59 33° SE 23:08:11 33° SE
USA 81 4.5 23:03:28 10° SSE 23:08:18 38° E 23:09:31 34° ENE
STARLINK-42 4.3 23:06:02 10° SSW 23:09:43 36° SE 23:09:55 35° SE
STARLINK-21 4.3 23:07:37 10° SSW 23:11:18 35° SE 23:11:24 35° SE
USA 267 3.2 23:04:45 10° SE 23:11:18 90° ENE 23:17:54 10° NW
S3M 3.8 23:06:38 10° N 23:12:50 76° E 23:18:57 10° SSE
STARLINK-45 4.1 23:09:20 10° SSW 23:13:06 40° SE 23:13:16 40° SE
Cosmos 2266 Rocket 4.1 23:06:58 10° SSE 23:13:11 56° E 23:19:23 10° NNE
Cosmos 1603 3.6 23:07:32 10° SSW 23:13:14 76° ESE 23:16:39 25° NNE
Cosmos 405 Rocket 2.4 23:10:08 10° N 23:13:51 80° E 23:17:36 10° SSE
STARLINK-75 4.0 23:11:03 10° SSW 23:14:52 44° SE 23:15:00 44° SE
STARLINK-76 4.2 23:12:29 10° SSW 23:16:10 39° SE 23:16:10 39° SE
Cosmos 1850 Rocket 4.1 23:11:34 10° S 23:16:39 53° ESE 23:18:04 41° ENE
CZ-4 R/B 4.4 23:12:30 10° SSE 23:16:40 87° W 23:20:51 10° NNW
Cosmos 1943 Rocket 2.1 23:11:04 10° NNW 23:16:44 89° ENE 23:22:18 10° SSE
NOSS 3-1 (C) 4.1 23:09:27 10° NNW 23:16:54 60° NE 23:23:58 16° SE
NOAA 15 4.4 23:12:31 10° SSE 23:17:45 73° ENE 23:22:59 10° N
STARLINK 4.1 23:14:06 10° SSW 23:17:45 40° SE 23:17:45 40° SE
STARLINK-32 4.1 23:15:44 10° SSW 23:19:21 41° SE 23:19:21 41° SE
STARLINK-40 4.1 23:17:21 10° SSW 23:20:55 42° SSE 23:20:55 42° SSE
FengYun 1-2 T 4.4 23:16:00 10° S 23:21:28 75° WSW 23:27:00 10° NNW
IRIDIUM 106 4.2 23:17:28 10° S 23:22:38 69° E 23:27:06 14° N
Cosmos 1553 Rocket 4.3 23:16:22 10° NNW 23:22:45 70° W 23:29:05 10° S
STARLINK-44 4.1 23:18:58 10° SSW 23:22:31 44° SSE 23:22:31 44° SSE
Okean 2 Rocket 3.5 23:18:43 10° NNW 23:23:10 65° W 23:27:38 10° S
Lacrosse 5 1.8 23:18:24 10° SW 23:23:31 86° NW 23:25:02 47° NE
Cosmos 2084 Rocket 3.9 23:19:23 10° SSW 23:23:18 46° SE 23:23:18 46° SE
USA 116 4.2 23:20:36 21° NNE 23:24:06 79° ESE 23:28:53 10° S
STARLINK-37 4.0 23:20:41 10° SSW 23:24:15 47° SSE 23:24:15 47° SSE
STARLINK-36 4.0 23:22:00 10° SSW 23:25:28 45° SSE 23:25:28 45° SSE
Abrixas rocket 3.6 23:24:38 10° W 23:26:42 31° NW 23:26:42 31° NW
STARLINK-41 4.1 23:23:51 10° SSW 23:27:14 45° SSE 23:27:14 45° SSE
Cosmos 2221 Rocket 4.5 23:23:44 10° SSW 23:28:02 48° WNW 23:32:18 10° N
USA 229 DEB 3.8 23:21:12 10° NNW 23:28:28 69° NE 23:33:30 23° SE
USA 229 3.8 23:21:18 10° NNW 23:28:34 69° NE 23:33:29 23° SE
STARLINK-64 4.1 23:25:30 10° SSW 23:28:50 46° SSE 23:28:50 46° SSE
Uosat 12 SS-18 rocket 4.3 23:26:03 10° NW 23:30:38 67° WSW 23:33:06 24° SSE
CSL-04 Rocket 3.5 23:25:38 10° SSE 23:30:54 86° ENE 23:36:16 10° NNW
STARLINK-35 4.0 23:27:07 10° SW 23:30:28 48° S 23:30:28 48° S
STARLINK-51 4.1 23:28:47 10° SW 23:32:04 48° S 23:32:04 48° S
YAOGAN 6 3.9 23:29:40 10° SSW 23:33:01 39° W 23:36:27 10° NNW
NOSS 3-1 (A) 4.1 23:26:39 10° NNW 23:33:59 54° NE 23:36:50 39° E
STARLINK-30 4.1 23:30:25 10° SW 23:33:40 48° S 23:33:40 48° S
STARLINK-33 4.1 23:31:54 10° SW 23:35:06 48° S 23:35:06 48° S
CZ-4 R/B 1.9 23:32:19 10° S 23:36:07 54° W 23:39:54 10° NNW
CZ-4C R/B 2.0 23:31:47 10° SW 23:36:45 86° NW 23:38:14 50° NNE
STARLINK-50 4.1 23:33:41 10° SW 23:36:51 48° S 23:36:51 48° S
Meteor 2-4 Rocket 3.9 23:32:51 10° SSW 23:38:43 75° W 23:43:36 15° N
STARLINK 4.3 23:35:08 10° SW 23:38:05 42° S 23:38:05 42° S
STARLINK-56 4.2 23:36:59 10° SW 23:40:02 47° SSW 23:40:02 47° SSW
Starlink (trailer) 4.3 23:38:37 10° SW 23:41:37 47° SSW 23:41:37 47° SSW
STARLINK-38 4.3 23:40:16 10° SW 23:43:13 46° SSW 23:43:13 46° SSW
Cosmos 1674 Rocket 3.6 23:40:58 10° S 23:45:05 75° SW 23:45:05 75° SW
STARLINK-65 4.4 23:41:53 10° SW 23:44:46 45° SSW 23:44:46 45° SSW
Cosmos 1763 Rocket 4.3 23:45:05 10° NNW 23:48:08 36° N 23:48:08 36° N
Gbstr 26 Del rocket 3.9 23:44:35 10° WSW 23:51:44 79° NNW 23:52:46 63° NE
BREEZE-M R/B 4.3 23:48:34 10° WNW 23:50:44 27° WNW 23:50:44 27° WNW
CZ-3B R/B 3.7 23:51:18 10° SSW 23:53:53 15° SSE 23:53:53 15° SSE
COSMO-SKYMED 1 4.4 23:52:24 14° NNW 23:55:21 30° WNW 23:59:07 10° SW
